ROMMA est une association bénévole à but non lucratif. Votre soutien est indispensable : ADHERER à ROMMA ou FAIRE un DON

Chambon - (38, Isère)

Oisans (2460 m)   Longitude: 06° 10' 42" E   Latitude: 45° 01' 32" N Station partenaire n°803
 

Détail journalier du     <<     >>

Température Humidité Vent Dir Rafale Dir. rafale Neige 1 Neige 2
Heure (°C) (%) (km/h) (km/h) (cm) (cm)
01:00 -9.0785NNE11NNE188234
02:00 -8.7632SSE8OSO188234
03:00 -8.0503E9E188234
04:00 -7.6464NNE14NNE188234
05:00 -7.3393NNE14NNE188234
06:00 -6.7415SSO9SSO188234
07:00 -6.5455SO9O188234
08:00 -6.3484OSO9ONO188234
09:00 -3.5423SO8O187234
10:00 -2.7473N11N188234
11:00 -2.3484N12NE188234
12:00 -2.1566NE18ENE188234
13:00 -1.95910ENE23ENE188234
14:00 -0.6548NE20ENE188234
15:00 1.7484NNE18NNE187234
16:00 1.54910SSO26SO187234
17:00 2.34912S27S187234
18:00 2.05312SSO28SSO187234
19:00 1.2559S25S187234
20:00 -0.46612SO27OSO187234
21:00 -1.4698SSO20SSO187234
22:00 -2.4756S18SSO187234
23:00 -2.5764NNE10NE187234
minuit -2.7762NNE9NNE187234

Graphique du 15-04-2019

 

Serveur OMMA